This demonstration page uses our WeatherBlox Daily Observations layout. Learn more.

Left ArrowRight Arrow

Hourly Observations for September 16, 2022

Temp ( °F °C ) Dew Point ( °F °C ) Humidity (%) Winds ( mph kmh ) Pressure ( in mb ) Visibility ( mi km ) Precip ( " mm )
12:53 am 00:53 Mostly Cloudy 69 20.6 69 20.6 100 100 NW 6 9 30.00 1016 10 16 0.00 0.00
1:53 am 01:53 Cloudy 66 18.9 N/A N/A WNW 7 11 29.99 1016 10 16 0.00 0.00
2:02 am 02:02 Cloudy 59 15 N/A N/A WNW 6 9 29.99 1016 10 16 0.00 0.00
2:53 am 02:53 Cloudy 65 18.3 N/A N/A NNE 8 13 29.98 1015 10 16 0.01 0.25
3:53 am 03:53 Cloudy 63 17.2 N/A N/A NW 8 13 29.98 1015 10 16 0.01 0.13
4:04 am 04:04 Cloudy with Light Rain 69 20.6 N/A N/A N 6 9 29.98 1015 10 16 0.01 0.13
4:29 am 04:29 Mostly Cloudy 70 21.1 N/A N/A N 5 7 29.98 1015 10 16 0.01 0.13
4:53 am 04:53 Mostly Clear 70 21.1 N/A N/A ENE 6 9 29.98 1015 10 16 0.01 0.13
5:53 am 05:53 Mostly Cloudy 65 18.3 N/A N/A E 5 7 29.99 1016 10 16 0.00 0.00
6:53 am 06:53 Mostly Sunny 77 25 73 22.8 88 88 E 3 6 30.01 1016 10 16 0.00 0.00
7:53 am 07:53 Mostly Cloudy 78 25.6 72 22.2 82 82 SW 5 7 30.02 1017 10 16 0.00 0.00
8:53 am 08:53 Partly Cloudy 78 25.6 72 22.2 82 82 WSW 7 11 30.03 1017 10 16 0.00 0.00
9:53 am 09:53 Partly Cloudy 77 25 73 22.8 88 88 WSW 6 9 30.03 1017 10 16 0.01 0.13
10:53 am 10:53 Partly Cloudy 85 29.4 72 22.2 65 65 WSW 10 17 30.01 1016 10 16 0.00 0.00
11:53 am 11:53 Partly Cloudy 86 30 72 22.2 63 63 W 10 17 29.99 1016 10 16 0.00 0.00
12:53 pm 12:53 Partly Cloudy 86 30 71 21.7 61 61 W 10 17 29.97 1015 10 16 0.00 0.00
1:53 pm 13:53 Partly Cloudy 86 30 71 21.7 61 61 WSW 10 17 29.96 1014 10 16 0.00 0.00
2:53 pm 14:53 Sunny 87 30.6 72 22.2 61 61 W 12 19 29.95 1014 10 16 0.00 0.00
3:53 pm 15:53 Partly Cloudy 86 30 71 21.7 61 61 WSW 13 20 29.95 1014 10 16 0.00 0.00
4:53 pm 16:53 Partly Cloudy 84 28.9 71 21.7 65 65 WSW 13 20 29.95 1014 10 16 0.00 0.00
5:53 pm 17:53 Partly Cloudy 83 28.3 72 22.2 70 70 WSW 13 20 29.96 1015 10 16 0.00 0.00
6:53 pm 18:53 Partly Cloudy 82 27.8 72 22.2 72 72 WSW 13 20 29.98 1015 10 16 0.00 0.00
7:53 pm 19:53 Cloudy 82 27.8 72 22.2 72 72 SW 16 26 30.00 1016 10 16 0.00 0.00
8:53 pm 20:53 Cloudy 81 27.2 71 21.7 72 72 SW 10 17 30.02 1017 10 16 0.00 0.00
9:26 pm 21:26 Cloudy 81 27.2 71 21.7 72 72 SW 12 19 30.03 1017 10 16 0.00 0.00
9:53 pm 21:53 Cloudy 81 27.2 71 21.7 72 72 SW 12 19 30.03 1017 10 16 0.00 0.00
10:34 pm 22:34 Cloudy 81 27.2 71 21.7 72 72 SW 13 20 30.03 1017 10 16 0.00 0.00
10:53 pm 22:53 Cloudy 81 27.2 71 21.7 72 72 SW 9 15 30.02 1017 10 16 0.00 0.00
11:19 pm 23:19 Cloudy 81 27.2 70 21.1 69 69 SW 10 17 30.00 1016 10 16 0.00 0.00
11:53 pm 23:53 Cloudy 81 27.2 70 21.1 69 69 SW 9 15 30.01 1016 10 16 0.00 0.00

Powered by AerisWeather